Pendleton, OR

12:34 AM PST on December 11, 2016 (GMT -0800)
Eastern Oreg Regional At Pendleton

Weather History for KPDT - February, 2014

Change the Weather History Date:

Thursday, February 6, 2014

  Actual Average Record
Temperature  
Mean Temperature 9 °F 37 °F  
Max Temperature 14 °F 45 °F 67 °F (1996)
Min Temperature 3 °F 30 °F -6 °F (1899)
Degree Days  
Heating Degree Days 56 28  
Month to date heating degree days 266 168  
Since 1 July heating degree days 3649 3326  
Cooling Degree Days 0 0  
Month to date cooling degree days 0 0  
Year to date cooling degree days 0 0  
Moisture  
Dew Point 5 °F    
Average Humidity 86    
Maximum Humidity 96    
Minimum Humidity 76    
Precipitation  
Precipitation 0.23 in 0.04 in 0.83 in (1938)
Month to date precipitation 0.36 0.23  
Year to date precipitation 1.09 1.66  
Snow  
Snow 2.50 in 0.10 in 8.00 in (1938)
Month to date snowfall 5.4 0.7  
Year to date snowfall 5.4 4.4  
Since 1 July snowfall 11.9 11.9  
Snow Depth 3.00 in    
Sea Level Pressure  
Sea Level Pressure 30.06 in    
Wind  
Wind Speed 3 mph (NNW)    
Max Wind Speed 9 mph    
Max Gust Speed 10 mph    
Visibility 4 miles    
Events Fog , Snow    
T = Trace of Precipitation, MM = Missing Value Source: NWS Daily Summary

Daily Weather History Graph

Daily Weather History Graph

Search for Another Location

Airport or City:

Trip Planner

Search our weather history database for the weather conditions in past years. The results will help you decide how hot, cold, wet, or windy it might be!

Date:

Astronomy

Feb. 06, 2014 Rise Set
Actual Time 7:10 AM PST 5:09 PM PST
Civil Twilight 6:39 AM PST 5:40 PM PST
Nautical Twilight 6:03 AM PST 6:15 PM PST
Astronomical Twilight 5:29 AM PST 6:50 PM PST
Moon 10:43 AM PST (2/6) 12:31 AM PST (2/6)
Length of Visible Light 11h 01m
Length of Day
9h 58m
Waxing Crescent, 50% of the Moon is Illuminated
Feb 6
Waxing Crescent
Feb 14
Full
Feb 22
Last Quarter
Mar 1
New
Mar 8
First Quarter

Hourly Weather History & Observations

Time (PST) Temp. Windchill Dew Point Humidity Pressure Visibility Wind Dir Wind Speed Gust Speed Precip Events Conditions
12:53 AM 8.1 °F - 5.0 °F 87% 30.39 in 10.0 mi Calm Calm - N/A   Overcast
1:53 AM 5.0 °F -4.1 °F 3.0 °F 92% 30.37 in 10.0 mi ESE 4.6 mph - N/A   Clear
2:53 AM 3.9 °F -5.3 °F 1.0 °F 88% 30.35 in 10.0 mi East 4.6 mph - N/A   Clear
3:53 AM 5.0 °F -5.6 °F 1.0 °F 84% 30.33 in 10.0 mi ENE 5.8 mph - N/A   Clear
4:41 AM 3.9 °F -3.4 °F -0.0 °F 84% 30.25 in 9.0 mi East 3.5 mph - N/A   Mostly Cloudy
4:53 AM 3.0 °F -6.4 °F -0.0 °F 87% 30.33 in 10.0 mi ENE 4.6 mph - N/A   Overcast
5:53 AM 7.0 °F - 1.9 °F 80% 30.31 in 10.0 mi Calm Calm - N/A   Overcast
6:53 AM 7.0 °F 0.1 °F 1.9 °F 80% 30.29 in 10.0 mi South 3.5 mph - N/A   Overcast
7:15 AM 7.0 °F - 3.0 °F 84% 30.22 in 10.0 mi Calm Calm - N/A   Overcast
7:53 AM 7.0 °F - 1.9 °F 80% 30.28 in 10.0 mi Calm Calm - N/A   Overcast
8:53 AM 8.1 °F - 3.0 °F 80% 30.27 in 10.0 mi Calm Calm - N/A   Overcast
9:09 AM 8.1 °F - 3.0 °F 80% 30.19 in 10.0 mi Calm Calm - N/A   Overcast
9:39 AM 9.0 °F - 3.9 °F 80% 30.18 in 10.0 mi Calm Calm - N/A   Overcast
9:53 AM 9.0 °F 2.4 °F 5.0 °F 84% 30.26 in 9.0 mi WSW 3.5 mph - N/A   Overcast
10:49 AM 10.4 °F - 3.2 °F 73% 30.16 in 1.8 mi Calm Calm - 0.00 in Snow Light Snow
10:53 AM 10.0 °F - 5.0 °F 80% 30.23 in 1.0 mi Calm Calm - 0.00 in Snow Light Snow
11:02 AM 10.0 °F - 5.0 °F 80% 30.16 in 0.5 mi Calm Calm - 0.01 in Snow Snow
11:23 AM 10.9 °F - 5.0 °F 77% 30.15 in 0.8 mi Calm Calm - 0.01 in Snow Light Snow
11:32 AM 10.9 °F - 6.1 °F 81% 30.14 in 1.0 mi Calm Calm - 0.01 in Snow Light Snow
11:53 AM 10.9 °F - 6.1 °F 81% 30.19 in 1.0 mi Calm Calm - 0.02 in Snow Light Snow
12:18 PM 12.9 °F - 6.1 °F 74% 30.10 in 2.0 mi Calm Calm - 0.00 in Snow Light Snow
12:28 PM 12.9 °F 3.8 °F 7.0 °F 77% 30.10 in 2.0 mi NW 5.8 mph - 0.00 in Snow Light Snow
12:38 PM 12.0 °F 4.1 °F 6.1 °F 77% 30.09 in 1.8 mi WNW 4.6 mph - 0.00 in Snow Light Snow
12:53 PM 12.9 °F 3.8 °F 7.0 °F 77% 30.15 in 1.5 mi WNW 5.8 mph - 0.00 in Snow Light Snow
1:05 PM 12.0 °F 2.7 °F 7.0 °F 80% 30.07 in 2.0 mi WNW 5.8 mph - 0.00 in Snow Light Snow
1:53 PM 10.9 °F 1.4 °F 5.0 °F 77% 30.11 in 1.2 mi NE 5.8 mph - 0.00 in Snow Light Snow
2:03 PM 12.0 °F 2.7 °F 5.0 °F 73% 30.03 in 1.5 mi NE 5.8 mph - 0.01 in Snow Light Snow
2:20 PM 12.0 °F 1.5 °F 6.1 °F 77% 30.02 in 1.2 mi NNE 6.9 mph - 0.01 in Snow Light Snow
2:28 PM 12.0 °F 1.5 °F 6.1 °F 77% 30.02 in 1.8 mi NNE 6.9 mph - 0.01 in Snow Light Snow
2:39 PM 12.0 °F 1.5 °F 6.1 °F 77% 30.01 in 0.8 mi NNE 6.9 mph - 0.01 in Snow Light Snow
2:53 PM 10.9 °F 0.2 °F 6.1 °F 81% 30.08 in 1.0 mi North 6.9 mph - 0.02 in Snow Light Snow
3:15 PM 10.9 °F 0.2 °F 6.1 °F 81% 29.99 in 1.5 mi North 6.9 mph - 0.00 in Snow Light Snow
3:31 PM 10.9 °F 1.4 °F 6.1 °F 81% 29.98 in 1.2 mi NNE 5.8 mph - 0.00 in Snow Light Snow
3:38 PM 10.9 °F 1.4 °F 5.0 °F 77% 29.98 in 1.5 mi North 5.8 mph - 0.00 in Snow Light Snow
3:53 PM 10.9 °F 1.4 °F 6.1 °F 81% 30.04 in 1.8 mi NNE 5.8 mph - 0.00 in Snow Light Snow
4:05 PM 10.9 °F 1.4 °F 5.0 °F 77% 29.95 in 1.8 mi NNE 5.8 mph - 0.01 in Snow Light Snow
4:12 PM 10.9 °F 2.9 °F 5.0 °F 77% 29.95 in 2.5 mi North 4.6 mph - 0.01 in Snow Light Snow
4:37 PM 10.9 °F 4.7 °F 5.0 °F 77% 29.94 in 4.0 mi North 3.5 mph - 0.01 in Snow Light Snow
4:53 PM 10.9 °F 2.9 °F 6.1 °F 81% 29.99 in 4.0 mi North 4.6 mph - 0.01 in Snow Light Snow
5:05 PM 10.9 °F 4.7 °F 6.1 °F 81% 29.91 in 1.8 mi North 3.5 mph - 0.00 in Snow Light Snow
5:08 PM 10.9 °F - 5.0 °F 77% 29.91 in 1.2 mi Calm Calm - 0.00 in Snow Light Snow
5:53 PM 10.0 °F 3.6 °F 6.1 °F 84% 29.95 in 1.0 mi NNW 3.5 mph - 0.02 in Snow Light Snow
6:48 PM 10.4 °F - 6.8 °F 85% 29.85 in 1.8 mi Calm Calm - 0.03 in Snow Light Snow
6:53 PM 10.0 °F - 6.1 °F 84% 29.92 in 1.2 mi Calm Calm - 0.03 in Snow Light Snow
7:06 PM 10.0 °F - 7.0 °F 87% 29.85 in 0.8 mi Calm Calm - 0.01 in Snow Light Snow
7:26 PM 10.0 °F 1.8 °F 7.0 °F 87% 29.85 in 1.2 mi WSW 4.6 mph - 0.02 in Snow Light Snow
7:38 PM 10.0 °F 0.4 °F 7.0 °F 87% 29.85 in 0.5 mi West 5.8 mph - 0.03 in Fog , Snow Snow
7:53 PM 10.0 °F -0.9 °F 7.0 °F 87% 29.92 in 0.5 mi West 6.9 mph - 0.06 in Fog , Snow Snow
8:20 PM 10.0 °F -1.9 °F 7.0 °F 87% 29.85 in 0.8 mi SW 8.1 mph - 0.03 in Snow Light Snow
8:27 PM 10.0 °F -0.9 °F 7.0 °F 87% 29.85 in 1.0 mi WSW 6.9 mph - 0.03 in Snow Light Snow
8:36 PM 10.0 °F -1.9 °F 7.0 °F 87% 29.86 in 0.8 mi SW 8.1 mph - 0.04 in Snow Light Snow
8:53 PM 10.0 °F 0.4 °F 7.0 °F 87% 29.92 in 1.8 mi SW 5.8 mph - 0.06 in Snow Light Snow
8:57 PM 10.0 °F -0.9 °F 7.0 °F 87% 29.85 in 2.5 mi WSW 6.9 mph - 0.00 in Snow Light Snow
9:05 PM 10.0 °F -2.9 °F 7.0 °F 87% 29.85 in 4.0 mi SW 9.2 mph - 0.00 in Snow Light Snow
9:12 PM 10.0 °F -0.9 °F 7.0 °F 87% 29.85 in 2.0 mi SW 6.9 mph - 0.00 in Snow Light Snow
9:23 PM 10.0 °F -0.9 °F 7.0 °F 87% 29.85 in 1.8 mi SSW 6.9 mph - 0.01 in Snow Light Snow
9:35 PM 10.0 °F 1.8 °F 7.0 °F 87% 29.84 in 3.0 mi South 4.6 mph - 0.01 in Snow Light Snow
9:53 PM 10.0 °F 1.8 °F 7.0 °F 87% 29.90 in 8.0 mi South 4.6 mph - 0.01 in   Overcast
10:53 PM 10.0 °F - 7.0 °F 87% 29.86 in 10.0 mi Calm Calm - N/A   Overcast
11:53 PM 8.1 °F - 6.1 °F 92% 29.86 in 10.0 mi Calm Calm - N/A   Scattered Clouds